| time (UTC) | temp F | wind direction | speed MPH | gust MPH | rain 1hr in | rain 24hr in | rain mn in | humidity % | barometer mb |
| 20260904131024 | 73 | 268 | 0.0 | 3.0 | 0.00 | 0.16 | 0.00 | 59 | 1014.7 |
| 20260904130021 | 72 | 204 | 0.0 | 2.0 | 0.00 | 0.16 | 0.00 | 60 | 1014.5 |
| 20260904125022 | 71 | 211 | 1.0 | 3.0 | 0.00 | 0.16 | 0.00 | 61 | 1014.4 |
| 20260904124023 | 71 | 210 | 1.0 | 3.0 | 0.00 | 0.16 | 0.00 | 62 | 1014.4 |
| 20260904123021 | 71 | 242 | 1.0 | 6.0 | 0.00 | 0.16 | 0.00 | 62 | 1014.3 |
| 20260904122023 | 71 | 277 | 2.0 | 5.0 | 0.00 | 0.16 | 0.00 | 62 | 1014.4 |
| 20260904121024 | 71 | 29 | 0.0 | 4.0 | 0.00 | 0.16 | 0.00 | 62 | 1014.3 |
| 20260904120025 | 71 | 12 | 0.0 | 4.0 | 0.00 | 0.16 | 0.00 | 63 | 1014.2 |
| 20260904115045 | 71 | 4 | 0.0 | 3.0 | 0.00 | 0.16 | 0.00 | 62 | 1014.1 |
| 20260904114021 | 71 | 41 | 0.0 | 1.0 | 0.00 | 0.16 | 0.00 | 62 | 1014.0 |
| 20260904113022 | 72 | 264 | 0.0 | 3.0 | 0.00 | 0.16 | 0.00 | 63 | 1014.0 |
| 20260904112026 | 72 | 253 | 3.0 | 6.0 | 0.00 | 0.16 | 0.00 | 62 | 1013.9 |
| 20260904111021 | 73 | 248 | 3.0 | 6.0 | 0.00 | 0.16 | 0.00 | 60 | 1013.9 |
| 20260904110021 | 73 | 270 | 2.0 | 5.0 | 0.00 | 0.16 | 0.00 | 60 | 1013.8 |
| 20260904105040 | 72 | 253 | 2.0 | 6.0 | 0.00 | 0.16 | 0.00 | 60 | 1013.7 |
| 20260904104021 | 73 | 276 | 3.0 | 5.0 | 0.00 | 0.16 | 0.00 | 61 | 1013.7 |
| 20260904103020 | 73 | 269 | 3.0 | 4.0 | 0.00 | 0.16 | 0.00 | 59 | 1013.8 |
| 20260904102040 | 73 | 260 | 4.0 | 7.0 | 0.00 | 0.16 | 0.00 | 61 | 1013.7 |
| 20260904101020 | 73 | 259 | 2.0 | 4.0 | 0.00 | 0.16 | 0.00 | 60 | 1013.5 |
| 20260904100022 | 73 | 249 | 2.0 | 3.0 | 0.00 | 0.16 | 0.00 | 59 | 1013.4 |
| 20260904095021 | 73 | 213 | 0.0 | 2.0 | 0.00 | 0.16 | 0.00 | 59 | 1013.4 |
| 20260904094023 | 73 | 194 | 1.0 | 3.0 | 0.00 | 0.16 | 0.00 | 59 | 1013.4 |
| 20260904093023 | 74 | 251 | 2.0 | 4.0 | 0.00 | 0.16 | 0.00 | 58 | 1013.4 |
| 20260904092024 | 74 | 195 | 2.0 | 4.0 | 0.00 | 0.16 | 0.00 | 58 | 1013.4 |
| 20260904091022 | 75 | 205 | 1.0 | 3.0 | 0.00 | 0.16 | 0.00 | 57 | 1013.4 |
| 20260904090023 | 74 | 194 | 1.0 | 3.0 | 0.00 | 0.16 | 0.00 | 56 | 1013.4 |
| 20260904085025 | 73 | 205 | 1.0 | 4.0 | 0.00 | 0.16 | 0.00 | 61 | 1013.4 |
| 20260904084020 | 73 | 240 | 2.0 | 7.0 | 0.00 | 0.16 | 0.00 | 62 | 1013.4 |
| 20260904083022 | 73 | 246 | 2.0 | 5.0 | 0.00 | 0.16 | 0.00 | 59 | 1013.5 |
| 20260904082021 | 74 | 260 | 1.0 | 3.0 | 0.00 | 0.16 | 0.00 | 57 | 1013.5 |
| 20260904081022 | 76 | 235 | 1.0 | 3.0 | 0.00 | 0.16 | 0.00 | 54 | 1013.5 |
| 20260904080020 | 76 | 223 | 0.0 | 2.0 | 0.00 | 0.16 | 0.00 | 53 | 1013.6 |
| 20260904075024 | 76 | 324 | 1.0 | 2.0 | 0.00 | 0.16 | 0.00 | 54 | 1013.6 |
| 20260904074019 | 76 | 282 | 0.0 | 1.0 | 0.00 | 0.16 | 0.00 | 53 | 1013.6 |
| 20260904073020 | 75 | 186 | 0.0 | 2.0 | 0.00 | 0.16 | 0.00 | 55 | 1013.5 |
| 20260904072022 | 74 | 311 | 1.0 | 3.0 | 0.00 | 0.16 | 0.00 | 55 | 1013.6 |
| 20260904071021 | 75 | 0 | 0.0 | 0.0 | 0.00 | 0.16 | 0.00 | 56 | 1013.7 |
| 20260904070019 | 75 | 96 | 1.0 | 2.0 | 0.00 | 0.16 | 0.00 | 54 | 1013.6 |
| 20260904065019 | 76 | 0 | 0.0 | 0.0 | 0.00 | 0.16 | 0.00 | 54 | 1013.6 |
| 20260904064042 | 77 | 0 | 0.0 | 0.0 | 0.00 | 0.16 | 0.00 | 53 | 1013.6 |
| 20260904063019 | 78 | 0 | 0.0 | 0.0 | 0.00 | 0.16 | 0.00 | 52 | 1013.7 |
| 20260904062020 | 79 | 0 | 0.0 | 0.0 | 0.00 | 0.16 | 0.00 | 51 | 1013.7 |
| 20260904061040 | 80 | 229 | 1.0 | 4.0 | 0.00 | 0.16 | 0.00 | 49 | 1013.6 |
| 20260904060022 | 81 | 299 | 2.0 | 3.0 | 0.00 | 0.16 | 0.00 | 48 | 1013.6 |
| 20260904055023 | 82 | 310 | 3.0 | 5.0 | 0.00 | 0.16 | 0.00 | 47 | 1013.5 |
| 20260904054023 | 82 | 291 | 2.0 | 3.0 | 0.00 | 0.16 | 0.00 | 46 | 1013.5 |
| 20260904053021 | 81 | 291 | 2.0 | 3.0 | 0.00 | 0.16 | 0.00 | 45 | 1013.4 |
| 20260904052028 | 81 | 291 | 2.0 | 3.0 | 0.00 | 0.16 | 0.00 | 49 | 1013.4 |
| 20260904051023 | 80 | 283 | 2.0 | 3.0 | 0.00 | 0.16 | 0.00 | 50 | 1013.4 |
| 20260904050023 | 81 | 290 | 0.0 | 2.0 | 0.00 | 0.16 | 0.00 | 50 | 1013.4 |
| 20260904045041 | 82 | 280 | 0.0 | 1.0 | 0.00 | 0.16 | 0.16 | 49 | 1013.4 |
| 20260904044020 | 82 | 316 | 1.0 | 2.0 | 0.00 | 0.16 | 0.16 | 47 | 1013.5 |
| 20260904043019 | 83 | 282 | 3.0 | 5.0 | 0.00 | 0.16 | 0.16 | 46 | 1013.6 |
| 20260904042021 | 83 | 294 | 3.0 | 4.0 | 0.00 | 0.16 | 0.16 | 45 | 1013.5 |
| 20260904041103 | 83 | 286 | 4.0 | 6.0 | 0.00 | 0.16 | 0.16 | 45 | 1013.6 |
| 20260904040021 | 83 | 289 | 1.0 | 3.0 | 0.00 | 0.16 | 0.16 | 45 | 1013.6 |
| 20260904035023 | 84 | 293 | 2.0 | 3.0 | 0.00 | 0.16 | 0.16 | 43 | 1013.5 |
| 20260904034021 | 84 | 246 | 2.0 | 3.0 | 0.00 | 0.16 | 0.16 | 41 | 1013.3 |
| 20260904033039 | 85 | 262 | 0.0 | 2.0 | 0.00 | 0.16 | 0.16 | 40 | 1013.2 |
| 20260904032023 | 85 | 0 | 0.0 | 0.0 | 0.00 | 0.16 | 0.16 | 40 | 1013.1 |
| 20260904031021 | 85 | 0 | 0.0 | 0.0 | 0.00 | 0.16 | 0.16 | 40 | 1013.1 |
| 20260904030041 | 84 | 87 | 0.0 | 2.0 | 0.00 | 0.16 | 0.16 | 41 | 1012.9 |
| 20260904025020 | 84 | 99 | 1.0 | 3.0 | 0.00 | 0.16 | 0.16 | 42 | 1012.8 |
| 20260904024022 | 84 | 0 | 0.0 | 0.0 | 0.00 | 0.16 | 0.16 | 41 | 1012.6 |
| 20260904023043 | 84 | 0 | 0.0 | 0.0 | 0.00 | 0.16 | 0.16 | 42 | 1012.5 |
| 20260904022024 | 84 | 0 | 0.0 | 0.0 | 0.00 | 0.16 | 0.16 | 41 | 1012.3 |
| 20260904021042 | 85 | 0 | 0.0 | 0.0 | 0.00 | 0.16 | 0.16 | 40 | 1012.3 |
| 20260904020029 | 86 | 0 | 0.0 | 0.0 | 0.00 | 0.16 | 0.16 | 40 | 1012.2 |
| 20260904015022 | 87 | 0 | 0.0 | 0.0 | 0.00 | 0.16 | 0.16 | 39 | 1012.0 |
| 20260904014022 | 87 | 358 | 0.0 | 1.0 | 0.00 | 0.16 | 0.16 | 39 | 1012.0 |
| 20260904013021 | 87 | 338 | 0.0 | 1.0 | 0.00 | 0.16 | 0.16 | 38 | 1011.9 |
| 20260904012020 | 88 | 330 | 1.0 | 3.0 | 0.00 | 0.16 | 0.16 | 38 | 1012.0 |
| 20260904011019 | 89 | 331 | 2.0 | 4.0 | 0.00 | 0.16 | 0.16 | 37 | 1012.1 |
| 20260904010025 | 89 | 338 | 5.0 | 6.0 | 0.00 | 0.16 | 0.16 | 36 | 1012.0 |
| 20260904005020 | 90 | 338 | 6.0 | 8.0 | 0.00 | 0.16 | 0.16 | 35 | 1012.0 |
| 20260904004025 | 90 | 332 | 6.0 | 8.0 | 0.00 | 0.16 | 0.16 | 34 | 1012.1 |
| 20260904003020 | 91 | 347 | 4.0 | 6.0 | 0.00 | 0.16 | 0.16 | 34 | 1012.0 |
| 20260904002022 | 91 | 352 | 4.0 | 9.0 | 0.00 | 0.16 | 0.16 | 34 | 1012.0 |
| 20260904001028 | 92 | 335 | 6.0 | 9.0 | 0.00 | 0.16 | 0.16 | 33 | 1012.0 |
| 20260904000024 | 94 | 312 | 4.0 | 7.0 | 0.00 | 0.16 | 0.16 | 31 | 1012.0 |
| 20260903235022 | 95 | 282 | 4.0 | 6.0 | 0.00 | 0.16 | 0.16 | 31 | 1011.9 |
| 20260903234020 | 95 | 266 | 4.0 | 6.0 | 0.00 | 0.16 | 0.16 | 30 | 1011.8 |
| 20260903233020 | 96 | 266 | 4.0 | 8.0 | 0.00 | 0.16 | 0.16 | 29 | 1011.7 |
| 20260903232023 | 96 | 261 | 5.0 | 8.0 | 0.01 | 0.16 | 0.16 | 29 | 1011.7 |
| 20260903231020 | 97 | 279 | 7.0 | 11.0 | 0.01 | 0.16 | 0.16 | 30 | 1011.6 |
| 20260903230025 | 100 | 251 | 6.0 | 11.0 | 0.01 | 0.17 | 0.16 | 26 | 1011.5 |
| 20260903225025 | 102 | 190 | 1.0 | 5.0 | 0.01 | 0.17 | 0.16 | 22 | 1011.4 |
| 20260903224044 | 102 | 186 | 2.0 | 7.0 | 0.01 | 0.16 | 0.16 | 21 | 1011.3 |
| 20260903223023 | 102 | 184 | 3.0 | 8.0 | 0.02 | 0.16 | 0.16 | 22 | 1011.3 |
| 20260903222019 | 103 | 169 | 2.0 | 8.0 | 0.02 | 0.16 | 0.15 | 22 | 1011.3 |
| 20260903221024 | 102 | 198 | 2.0 | 7.0 | 0.02 | 0.16 | 0.15 | 21 | 1011.4 |
| 20260903220042 | 102 | 181 | 2.0 | 8.0 | 0.02 | 0.16 | 0.15 | 22 | 1011.4 |
| 20260903215102 | 102 | 183 | 4.0 | 8.0 | 0.02 | 0.16 | 0.15 | 23 | 1011.5 |
| 20260903214019 | 102 | 188 | 2.0 | 8.0 | 0.02 | 0.16 | 0.14 | 23 | 1011.6 |
| 20260903213023 | 102 | 182 | 5.0 | 10.0 | 0.02 | 0.16 | 0.14 | 23 | 1011.7 |
| 20260903212021 | 102 | 119 | 1.0 | 3.0 | 0.01 | 0.15 | 0.13 | 23 | 1011.9 |
| 20260903211022 | 102 | 188 | 2.0 | 7.0 | 0.01 | 0.15 | 0.13 | 23 | 1012.0 |
| 20260903210041 | 102 | 201 | 4.0 | 11.0 | 0.01 | 0.15 | 0.13 | 23 | 1012.0 |
| 20260903205020 | 102 | 130 | 2.0 | 7.0 | 0.01 | 0.15 | 0.13 | 23 | 1012.1 |
| 20260903204040 | 101 | 128 | 2.0 | 4.0 | 0.01 | 0.15 | 0.13 | 23 | 1012.2 |
| 20260903203020 | 101 | 149 | 1.0 | 4.0 | 0.01 | 0.15 | 0.12 | 24 | 1012.4 |
| 20260903202021 | 102 | 187 | 4.0 | 10.0 | 0.01 | 0.15 | 0.12 | 24 | 1012.6 |
| 20260903201020 | 101 | 189 | 4.0 | 8.0 | 0.02 | 0.15 | 0.12 | 23 | 1012.7 |
| 20260903200024 | 101 | 179 | 3.0 | 8.0 | 0.02 | 0.15 | 0.12 | 24 | 1012.8 |
| 20260903195022 | 101 | 260 | 3.0 | 6.0 | 0.01 | 0.15 | 0.12 | 24 | 1012.9 |
| 20260903194022 | 101 | 198 | 4.0 | 8.0 | 0.02 | 0.15 | 0.12 | 24 | 1013.1 |
| 20260903193022 | 101 | 205 | 4.0 | 10.0 | 0.02 | 0.16 | 0.11 | 25 | 1013.1 |
| 20260903192022 | 101 | 185 | 2.0 | 9.0 | 0.03 | 0.16 | 0.11 | 25 | 1013.3 |
| 20260903191023 | 100 | 218 | 4.0 | 9.0 | 0.03 | 0.16 | 0.11 | 25 | 1013.4 |
| 20260903190021 | 100 | 221 | 4.0 | 8.0 | 0.03 | 0.16 | 0.11 | 25 | 1013.7 |
| 20260903185027 | 99 | 184 | 4.0 | 9.0 | 0.04 | 0.17 | 0.11 | 26 | 1013.9 |
| 20260903184019 | 99 | 210 | 4.0 | 7.0 | 0.04 | 0.16 | 0.10 | 26 | 1014.1 |
| 20260903183019 | 99 | 185 | 4.0 | 10.0 | 0.04 | 0.16 | 0.09 | 26 | 1014.3 |
| 20260903182022 | 99 | 189 | 5.0 | 9.0 | 0.03 | 0.16 | 0.08 | 25 | 1014.4 |
| 20260903181020 | 98 | 192 | 4.0 | 9.0 | 0.03 | 0.15 | 0.08 | 28 | 1014.6 |
| 20260903180020 | 98 | 189 | 5.0 | 9.0 | 0.03 | 0.16 | 0.08 | 27 | 1014.7 |
| 20260903175040 | 98 | 192 | 5.0 | 9.0 | 0.02 | 0.16 | 0.06 | 29 | 1014.8 |
| 20260903174022 | 97 | 194 | 4.0 | 10.0 | 0.01 | 0.15 | 0.06 | 30 | 1015.0 |
| 20260903173020 | 96 | 215 | 4.0 | 9.0 | 0.01 | 0.16 | 0.05 | 31 | 1015.1 |
| 20260903172024 | 95 | 198 | 4.0 | 8.0 | 0.02 | 0.16 | 0.05 | 31 | 1015.1 |
| 20260903171020 | 95 | 243 | 6.0 | 11.0 | 0.01 | 0.17 | 0.05 | 32 | 1015.2 |
| 20260903170021 | 94 | 234 | 5.0 | 10.0 | 0.02 | 0.18 | 0.05 | 33 | 1015.3 |
| 20260903165023 | 93 | 230 | 5.0 | 10.0 | 0.02 | 0.19 | 0.04 | 35 | 1015.3 |
| 20260903164021 | 93 | 218 | 5.0 | 9.0 | 0.02 | 0.19 | 0.04 | 35 | 1015.2 |
| 20260903163023 | 93 | 208 | 4.0 | 9.0 | 0.02 | 0.19 | 0.04 | 35 | 1015.2 |
| 20260903162023 | 91 | 229 | 5.0 | 9.0 | 0.02 | 0.20 | 0.04 | 37 | 1015.3 |
| 20260903161044 | 90 | 218 | 3.0 | 7.0 | 0.02 | 0.20 | 0.03 | 38 | 1015.3 |
| 20260903160023 | 90 | 224 | 4.0 | 10.0 | 0.02 | 0.21 | 0.03 | 39 | 1015.4 |
| 20260903155042 | 89 | 228 | 4.0 | 10.0 | 0.02 | 0.21 | 0.03 | 39 | 1015.3 |
| 20260903154023 | 89 | 203 | 4.0 | 9.0 | 0.03 | 0.21 | 0.03 | 39 | 1015.2 |
| 20260903153039 | 88 | 226 | 5.0 | 12.0 | 0.02 | 0.22 | 0.02 | 40 | 1015.2 |
| 20260903152021 | 87 | 223 | 4.0 | 8.0 | 0.02 | 0.23 | 0.02 | 41 | 1015.2 |
| 20260903151019 | 87 | 210 | 4.0 | 8.0 | 0.01 | 0.24 | 0.01 | 41 | 1015.2 |
| 20260903150020 | 86 | 223 | 5.0 | 9.0 | 0.01 | 0.25 | 0.01 | 42 | 1015.2 |
| 20260903145027 | 85 | 231 | 6.0 | 14.0 | 0.01 | 0.27 | 0.01 | 43 | 1015.2 |
| 20260903144024 | 85 | 234 | 8.0 | 12.0 | 0.00 | 0.27 | 0.00 | 44 | 1015.3 |
| 20260903143041 | 84 | 231 | 6.0 | 12.0 | 0.00 | 0.28 | 0.00 | 43 | 1015.4 |
| 20260903142044 | 82 | 230 | 5.0 | 10.0 | 0.00 | 0.29 | 0.00 | 46 | 1015.4 |
| 20260903141043 | 80 | 225 | 3.0 | 6.0 | 0.00 | 0.29 | 0.00 | 48 | 1015.4 |
| 20260903140024 | 78 | 230 | 3.0 | 5.0 | 0.00 | 0.29 | 0.00 | 50 | 1015.4 |
| 20260903135022 | 77 | 236 | 2.0 | 4.0 | 0.00 | 0.29 | 0.00 | 51 | 1015.2 |
| 20260903134026 | 75 | 198 | 1.0 | 3.0 | 0.00 | 0.29 | 0.00 | 53 | 1015.4 |
| 20260903133041 | 73 | 191 | 0.0 | 2.0 | 0.00 | 0.29 | 0.00 | 55 | 1015.3 |
| 20260903132022 | 72 | 208 | 0.0 | 2.0 | 0.00 | 0.29 | 0.00 | 57 | 1015.3 |